Showing default

BUCCANEER MM, 63245

Orbit data source: Space-Track

BUCCANEER MM, 63245 is an Australian payload satellite in SSO that was launched on Sat, 15 Mar 2025 UTC via an FALCON 9 launch vehicle from the Air Force Western Test Range (AFWTR). Payload-class satellites include a variety of spacecraft equipped with specific instruments for various scientific and technological missions. These include communications satellites like Starlink; space stations such as the ISS; scientific satellites like the Hubble; Earth observation satellites from companies like Planet Labs, Umbra, and HawkEye 360; GPS; miniature CubeSats for education and research; and military/defense satellites.

Loading next visibility...
Identifier
63245, 2025-052AM
Orbit
SSO
Country
Flag of AUAU / AUS
Related business
Manufacturer
U. NSW
Mission
Operational Amateur Technology
Bus & Motor
CUBESAT 6U, Unknown motor
Mass
~10 kg wet, ~10 kg dry
Launch date (UTC)
2025-03-15 (1 year ago)
Launch vehicle
FALCON 9
Launch site
Air Force Western Test Range (AFWTR)
Object type
Payload
Rocket body
Debris
Shape & HBR
Box + 2 Ant, 0.2 m
Radar Cross Section
0.160 m², Small (<0.1 m²)

Expand to show TLE details & history
Last TLE update: 10 hours ago

TLE from 10 hours ago
0 BUCCANEER MM
1 63245U 25052AM  26133.55338528  .00001362  00000-0  13142-3 0  9994
2 63245  97.6907  25.2694 0003619 354.0219   6.0958 14.94479924 63427
Epoch: 2026-05-13T13:16Z
TLE epoch observation values (Epoch: 2026-05-13T13:16:52.488Z)
Latitude
0.00003°
Longitude
-45.26106°
Altitude
584.529 km
Speed
7.569 km/s
True Right ascension
01h 41m 04s
True Declination
0° 00' 00"
Sunlit
Object was in daylight at epoch
Visualization orbit readout
Latitude
Unknown
Longitude
Unknown
Altitude
Unknown
Speed
Unknown
Apparent Right ascension
Unknown
Apparent Declination
Unknown
Sunlit
N/A
Visualization observer readout
Local Sidereal Time
08:01:05
Azimuth
Unknown
Elevation
Unknown
Doppler factor
Unknown
Orbital elements
Apogee altitude
583.518 km
Perigee altitude
578.481 km
Semi-major axis
6,959.137 km
Eccentricity
0.00036
Inclination
97.6907°
RAAN
25.2694°
Arg. of periapsis
354.0219°
True anomaly
6.10021°
Mean anomaly
6.0958°
Eccentric anomaly
6.098°
Mean motion
3.73861 °/min
Orbital period
96.29 mins
BSTAR
0.00013142
Loading maneuver chart data...
Computing Atmospheric mass density...
Loading historical data...
Loading historical data...
Loading historical data...
Loading historical data...
Loading historical data...
Loading historical data...
Loading historical data...

Documentation

Showing up to 5 results
|